Time,TemperatureF,DewpointF,PressureIn,WindDirection,WindDirectionDegrees,WindSpeedMPH,WindSpeedGustMPH,Humidity,HourlyPrecipIn,Conditions,Clouds,dailyrainin,SoftwareType,DateUTC
2013-02-04 00:07:00,15.3,12.0,30.08,West,267,1.0,2.0,88,0.00,,,0.00,weatherlink.com 1.10,2013-02-04 05:07:00,
2013-02-04 00:22:00,15.7,13.0,30.08,SW,223,1.0,2.0,88,0.00,,,0.00,weatherlink.com 1.10,2013-02-04 05:22:00,
2013-02-04 00:37:00,15.7,13.0,30.08,SW,224,0.0,3.0,88,0.00,,,0.00,weatherlink.com 1.10,2013-02-04 05:37:00,
2013-02-04 00:52:00,15.7,13.0,30.08,SW,224,0.0,3.0,88,0.00,,,0.00,weatherlink.com 1.10,2013-02-04 05:52:00,
2013-02-04 01:07:00,15.7,13.0,30.08,SW,224,0.0,1.0,88,0.00,,,0.00,weatherlink.com 1.10,2013-02-04 06:07:00,
2013-02-04 01:22:00,16.3,13.0,30.08,SW,224,0.0,3.0,88,0.00,,,0.00,weatherlink.com 1.10,2013-02-04 06:22:00,
2013-02-04 01:37:00,16.7,14.0,30.08,West,265,2.0,3.0,88,0.00,,,0.00,weatherlink.com 1.10,2013-02-04 06:37:00,
2013-02-04 01:52:00,16.7,14.0,30.08,WSW,245,1.0,3.0,88,0.00,,,0.00,weatherlink.com 1.10,2013-02-04 06:52:00,
2013-02-04 02:07:00,16.7,14.0,30.08,WSW,253,0.0,2.0,89,0.00,,,0.00,weatherlink.com 1.10,2013-02-04 07:07:00,
2013-02-04 02:22:00,16.8,14.0,30.07,SSW,212,0.0,4.0,89,0.00,,,0.00,weatherlink.com 1.10,2013-02-04 07:22:00,
2013-02-04 02:37:00,17.0,15.0,30.07,SW,225,2.0,2.0,90,0.00,,,0.00,weatherlink.com 1.10,2013-02-04 07:37:00,
2013-02-04 02:52:00,17.2,15.0,30.07,SW,225,0.0,3.0,90,0.00,,,0.00,weatherlink.com 1.10,2013-02-04 07:52:00,
2013-02-04 03:07:00,17.4,15.0,30.07,SW,225,0.0,2.0,90,0.00,,,0.00,weatherlink.com 1.10,2013-02-04 08:07:00,
2013-02-04 03:22:00,17.8,16.0,30.07,WSW,242,0.0,3.0,91,0.00,,,0.00,weatherlink.com 1.10,2013-02-04 08:22:00,
2013-02-04 03:37:00,18.2,16.0,30.06,WSW,242,0.0,1.0,91,0.00,,,0.00,weatherlink.com 1.10,2013-02-04 08:37:00,
2013-02-04 03:52:00,18.5,16.0,30.05,WSW,242,0.0,4.0,91,0.00,,,0.00,weatherlink.com 1.10,2013-02-04 08:52:00,
2013-02-04 04:07:00,18.8,17.0,30.05,WSW,257,1.0,4.0,91,0.00,,,0.00,weatherlink.com 1.10,2013-02-04 09:07:00,
2013-02-04 04:22:00,18.8,17.0,30.04,WSW,257,0.0,3.0,91,0.00,,,0.00,weatherlink.com 1.10,2013-02-04 09:22:00,
2013-02-04 04:53:00,18.8,17.0,30.03,SSE,163,3.0,5.0,92,0.00,,,0.00,weatherlink.com 1.10,2013-02-04 09:53:00,
2013-02-04 05:07:00,18.4,17.0,30.03,SSE,164,1.0,5.0,92,0.00,,,0.00,weatherlink.com 1.10,2013-02-04 10:07:00,
2013-02-04 05:23:00,18.3,16.0,30.02,SSE,163,2.0,6.0,92,0.00,,,0.00,weatherlink.com 1.10,2013-02-04 10:23:00,
2013-02-04 05:37:00,18.4,17.0,30.02,SSE,161,1.0,4.0,92,0.00,,,0.00,weatherlink.com 1.10,2013-02-04 10:37:00,
2013-02-04 05:52:00,18.4,17.0,30.01,SSE,166,2.0,4.0,93,0.00,,,0.00,weatherlink.com 1.10,2013-02-04 10:52:00,
2013-02-04 06:07:00,18.5,17.0,30.00,SSE,153,2.0,5.0,92,0.00,,,0.00,weatherlink.com 1.10,2013-02-04 11:07:00,
2013-02-04 06:23:00,18.6,17.0,30.00,SSE,164,4.0,5.0,93,0.00,,,0.00,weatherlink.com 1.10,2013-02-04 11:23:00,
2013-02-04 06:37:00,18.7,17.0,29.99,SSE,164,3.0,4.0,93,0.00,,,0.00,weatherlink.com 1.10,2013-02-04 11:37:00,
2013-02-04 06:52:00,18.9,17.0,29.99,SSE,164,3.0,5.0,93,0.00,,,0.00,weatherlink.com 1.10,2013-02-04 11:52:00,
2013-02-04 07:08:00,19.0,17.0,29.98,SSE,162,3.0,5.0,93,0.00,,,0.00,weatherlink.com 1.10,2013-02-04 12:08:00,
2013-02-04 07:23:00,19.1,17.0,29.98,SSE,160,4.0,5.0,93,0.00,,,0.00,weatherlink.com 1.10,2013-02-04 12:23:00,
2013-02-04 07:38:00,19.2,18.0,29.98,SSE,162,4.0,6.0,93,0.00,,,0.00,weatherlink.com 1.10,2013-02-04 12:38:00,
2013-02-04 07:53:00,19.3,18.0,29.98,SSE,162,2.0,5.0,93,0.00,,,0.00,weatherlink.com 1.10,2013-02-04 12:53:00,
2013-02-04 08:08:00,19.5,18.0,29.99,SSE,155,3.0,5.0,93,0.00,,,0.00,weatherlink.com 1.10,2013-02-04 13:08:00,
2013-02-04 08:23:00,19.6,18.0,29.98,ESE,117,3.0,4.0,94,0.00,,,0.00,weatherlink.com 1.10,2013-02-04 13:23:00,
2013-02-04 08:38:00,19.8,18.0,29.98,East,97,3.0,4.0,94,0.00,,,0.00,weatherlink.com 1.10,2013-02-04 13:38:00,
2013-02-04 08:53:00,20.0,19.0,29.99,ESE,102,2.0,5.0,94,0.00,,,0.00,weatherlink.com 1.10,2013-02-04 13:53:00,
2013-02-04 09:08:00,20.2,19.0,29.99,East,94,5.0,6.0,94,0.00,,,0.00,weatherlink.com 1.10,2013-02-04 14:08:00,
2013-02-04 09:23:00,20.3,19.0,29.98,East,94,5.0,7.0,93,0.00,,,0.00,weatherlink.com 1.10,2013-02-04 14:23:00,
2013-02-04 09:38:00,20.8,19.0,29.98,East,98,7.0,7.0,94,0.00,,,0.00,weatherlink.com 1.10,2013-02-04 14:38:00,
2013-02-04 09:53:00,21.0,19.0,29.97,East,90,7.0,8.0,93,0.00,,,0.00,weatherlink.com 1.10,2013-02-04 14:53:00,
2013-02-04 10:08:00,21.3,20.0,29.96,East,98,6.0,9.0,93,0.00,,,0.00,weatherlink.com 1.10,2013-02-04 15:08:00,
2013-02-04 10:23:00,21.8,20.0,29.95,East,90,6.0,10.0,93,0.00,,,0.00,weatherlink.com 1.10,2013-02-04 15:23:00,
2013-02-04 10:38:00,22.5,21.0,29.95,ESE,117,4.0,8.0,93,0.00,,,0.00,weatherlink.com 1.10,2013-02-04 15:38:00,
2013-02-04 10:53:00,22.9,21.0,29.94,East,86,6.0,8.0,93,0.00,,,0.00,weatherlink.com 1.10,2013-02-04 15:53:00,
2013-02-04 11:08:00,23.5,22.0,29.94,ESE,107,4.0,8.0,92,0.00,,,0.00,weatherlink.com 1.10,2013-02-04 16:08:00,
2013-02-04 11:23:00,23.6,21.0,29.94,SE,126,7.0,10.0,91,0.00,,,0.00,weatherlink.com 1.10,2013-02-04 16:23:00,
2013-02-04 11:38:00,23.6,22.0,29.93,ESE,113,9.0,11.0,92,0.00,,,0.00,weatherlink.com 1.10,2013-02-04 16:38:00,
2013-02-04 11:53:00,24.0,22.0,29.93,SE,132,4.0,10.0,91,0.00,,,0.00,weatherlink.com 1.10,2013-02-04 16:53:00,
2013-02-04 12:09:00,24.3,22.0,29.92,SE,124,5.0,9.0,90,0.00,,,0.00,weatherlink.com 1.10,2013-02-04 17:09:00,
2013-02-04 12:23:00,24.2,22.0,29.91,SE,136,7.0,10.0,90,0.00,,,0.00,weatherlink.com 1.10,2013-02-04 17:23:00,
2013-02-04 12:38:00,24.0,22.0,29.91,SE,130,5.0,10.0,91,0.00,,,0.00,weatherlink.com 1.10,2013-02-04 17:38:00,
2013-02-04 12:53:00,24.3,22.0,29.90,ESE,113,5.0,10.0,90,0.00,,,0.00,weatherlink.com 1.10,2013-02-04 17:53:00,
2013-02-04 13:09:00,24.3,22.0,29.89,SE,126,7.0,9.0,90,0.00,,,0.00,weatherlink.com 1.10,2013-02-04 18:09:00,
2013-02-04 13:23:00,24.4,22.0,29.89,ESE,123,4.0,9.0,89,0.00,,,0.00,weatherlink.com 1.10,2013-02-04 18:23:00,
2013-02-04 13:53:00,24.4,22.0,29.87,ESE,122,4.0,9.0,89,0.00,,,0.00,weatherlink.com 1.10,2013-02-04 18:53:00,
2013-02-04 14:09:00,24.4,22.0,29.87,SE,139,5.0,9.0,89,0.00,,,0.00,weatherlink.com 1.10,2013-02-04 19:09:00,
2013-02-04 14:23:00,24.5,22.0,29.87,ESE,107,3.0,8.0,90,0.00,,,0.00,weatherlink.com 1.10,2013-02-04 19:23:00,
2013-02-04 14:39:00,24.5,22.0,29.87,ESE,121,4.0,7.0,90,0.00,,,0.00,weatherlink.com 1.10,2013-02-04 19:39:00,
2013-02-04 14:53:00,24.3,22.0,29.87,SE,126,4.0,7.0,90,0.00,,,0.00,weatherlink.com 1.10,2013-02-04 19:53:00,
2013-02-04 15:09:00,24.4,22.0,29.87,East,94,3.0,6.0,90,0.00,,,0.00,weatherlink.com 1.10,2013-02-04 20:09:00,
2013-02-04 15:23:00,24.4,22.0,29.87,East,94,3.0,5.0,90,0.00,,,0.00,weatherlink.com 1.10,2013-02-04 20:23:00,
2013-02-04 15:39:00,24.5,22.0,29.86,East,97,3.0,6.0,90,0.00,,,0.00,weatherlink.com 1.10,2013-02-04 20:39:00,
2013-02-04 15:53:00,24.5,22.0,29.87,ENE,78,2.0,4.0,90,0.00,,,0.00,weatherlink.com 1.10,2013-02-04 20:53:00,
2013-02-04 16:09:00,24.5,22.0,29.87,ENE,65,2.0,5.0,90,0.00,,,0.00,weatherlink.com 1.10,2013-02-04 21:09:00,
2013-02-04 16:24:00,24.4,22.0,29.87,ENE,65,2.0,5.0,90,0.00,,,0.00,weatherlink.com 1.10,2013-02-04 21:24:00,
2013-02-04 16:39:00,24.4,22.0,29.88,ENE,65,1.0,5.0,90,0.00,,,0.00,weatherlink.com 1.10,2013-02-04 21:39:00,
2013-02-04 16:54:00,24.3,22.0,29.88,ENE,65,2.0,4.0,90,0.00,,,0.00,weatherlink.com 1.10,2013-02-04 21:54:00,
2013-02-04 17:09:00,24.3,22.0,29.87,ENE,65,2.0,4.0,90,0.00,,,0.00,weatherlink.com 1.10,2013-02-04 22:09:00,
2013-02-04 17:24:00,24.2,22.0,29.87,ENE,65,2.0,4.0,91,0.00,,,0.00,weatherlink.com 1.10,2013-02-04 22:24:00,
2013-02-04 17:39:00,24.0,22.0,29.87,ENE,65,1.0,4.0,91,0.00,,,0.00,weatherlink.com 1.10,2013-02-04 22:39:00,
2013-02-04 17:54:00,23.9,22.0,29.86,ENE,65,2.0,4.0,91,0.00,,,0.00,weatherlink.com 1.10,2013-02-04 22:54:00,
2013-02-04 18:09:00,23.8,22.0,29.86,ENE,76,2.0,4.0,91,0.00,,,0.00,weatherlink.com 1.10,2013-02-04 23:09:00,
2013-02-04 18:24:00,23.8,22.0,29.87,ENE,76,2.0,4.0,92,0.00,,,0.00,weatherlink.com 1.10,2013-02-04 23:24:00,
2013-02-04 18:39:00,23.8,22.0,29.87,ENE,76,1.0,3.0,92,0.00,,,0.00,weatherlink.com 1.10,2013-02-04 23:39:00,
2013-02-04 18:54:00,23.8,22.0,29.88,ENE,76,1.0,2.0,92,0.00,,,0.00,weatherlink.com 1.10,2013-02-04 23:54:00,
2013-02-04 19:09:00,23.8,22.0,29.90,ENE,76,1.0,3.0,92,0.00,,,0.00,weatherlink.com 1.10,2013-02-05 00:09:00,
2013-02-04 19:24:00,23.7,22.0,29.91,NNW,342,1.0,4.0,92,0.00,,,0.00,weatherlink.com 1.10,2013-02-05 00:24:00,
2013-02-04 19:39:00,23.7,22.0,29.91,NNW,342,4.0,4.0,92,0.00,,,0.00,weatherlink.com 1.10,2013-02-05 00:39:00,
2013-02-04 19:54:00,23.7,22.0,29.92,NNW,342,3.0,4.0,92,0.00,,,0.00,weatherlink.com 1.10,2013-02-05 00:54:00,
2013-02-04 20:09:00,23.7,22.0,29.93,NNW,327,3.0,5.0,92,0.00,,,0.00,weatherlink.com 1.10,2013-02-05 01:09:00,
2013-02-04 20:24:00,23.8,22.0,29.93,NNW,327,3.0,6.0,92,0.00,,,0.00,weatherlink.com 1.10,2013-02-05 01:24:00,
2013-02-04 20:39:00,23.8,22.0,29.93,NNW,332,4.0,5.0,92,0.00,,,0.00,weatherlink.com 1.10,2013-02-05 01:39:00,
2013-02-04 20:54:00,23.4,22.0,29.93,NNW,332,1.0,4.0,92,0.00,,,0.00,weatherlink.com 1.10,2013-02-05 01:54:00,
2013-02-04 21:09:00,22.9,21.0,29.93,NNW,332,1.0,4.0,92,0.00,,,0.00,weatherlink.com 1.10,2013-02-05 02:09:00,
2013-02-04 21:24:00,22.5,21.0,29.94,NNW,332,1.0,3.0,92,0.00,,,0.00,weatherlink.com 1.10,2013-02-05 02:24:00,
2013-02-04 21:39:00,22.6,21.0,29.94,NNW,332,2.0,5.0,93,0.00,,,0.00,weatherlink.com 1.10,2013-02-05 02:39:00,
2013-02-04 21:54:00,22.8,21.0,29.93,NNW,332,1.0,4.0,93,0.00,,,0.00,weatherlink.com 1.10,2013-02-05 02:54:00,
2013-02-04 22:09:00,23.0,21.0,29.93,NNW,332,2.0,4.0,93,0.00,,,0.00,weatherlink.com 1.10,2013-02-05 03:09:00,
2013-02-04 22:24:00,22.9,21.0,29.93,NNW,332,3.0,4.0,93,0.00,,,0.00,weatherlink.com 1.10,2013-02-05 03:24:00,
2013-02-04 22:39:00,22.9,21.0,29.93,NNW,332,0.0,4.0,93,0.00,,,0.00,weatherlink.com 1.10,2013-02-05 03:39:00,
2013-02-04 22:54:00,22.9,21.0,29.93,NNW,332,0.0,1.0,93,0.00,,,0.00,weatherlink.com 1.10,2013-02-05 03:54:00,
2013-02-04 23:09:00,22.7,21.0,29.95,NNW,332,2.0,4.0,93,0.00,,,0.00,weatherlink.com 1.10,2013-02-05 04:09:00,
2013-02-04 23:24:00,22.7,21.0,29.95,NNW,332,3.0,4.0,93,0.00,,,0.00,weatherlink.com 1.10,2013-02-05 04:24:00,
2013-02-04 23:39:00,22.6,21.0,29.94,NW,304,3.0,4.0,93,0.00,,,0.00,weatherlink.com 1.10,2013-02-05 04:39:00,
2013-02-04 23:54:00,22.5,21.0,29.95,NW,309,4.0,6.0,93,0.00,,,0.00,weatherlink.com 1.10,2013-02-05 04:54:00,